Radiation Dose at Monitoring Post of Fukushima Daini Nuclear Power Station
Date,Time,MP-1(microSv/h),MP-2(microSv/h),MP-3(microSv/h),MP-4(microSv/h),MP-5(microSv/h),MP-6(microSv/h),MP-7(microSv/h),Wind Direction,Wind Velocity(m/s),Rain
2020/06/20,00:00,0.168,0.154,0.248,0.239,0.240,0.131,0.082,north-northwest,4.9,No
2020/06/20,00:10,0.168,0.156,0.249,0.237,0.242,0.131,0.081,north,4.0,No
2020/06/20,00:20,0.167,0.154,0.248,0.239,0.242,0.132,0.081,north,5.9,No
2020/06/20,00:30,0.168,0.155,0.250,0.238,0.242,0.131,0.080,north,4.8,No
2020/06/20,00:40,0.169,0.154,0.248,0.238,0.242,0.132,0.081,north,3.6,No
2020/06/20,00:50,0.169,0.154,0.250,0.237,0.240,0.131,0.081,north,3.4,No
2020/06/20,01:00,0.168,0.155,0.248,0.238,0.242,0.132,0.082,north,3.5,No
2020/06/20,01:10,0.168,0.155,0.249,0.238,0.241,0.133,0.082,north,3.8,Yes
2020/06/20,01:20,0.168,0.155,0.249,0.238,0.243,0.132,0.082,north,4.4,No
2020/06/20,01:30,0.169,0.155,0.249,0.239,0.241,0.133,0.081,north-northwest,2.3,No
2020/06/20,01:40,0.167,0.155,0.248,0.238,0.243,0.132,0.081,north,4.7,Yes
2020/06/20,01:50,0.169,0.155,0.249,0.240,0.240,0.133,0.082,north-northwest,5.4,No
2020/06/20,02:00,0.168,0.153,0.248,0.237,0.242,0.132,0.082,north-northwest,4.9,No
2020/06/20,02:10,0.168,0.155,0.248,0.238,0.242,0.131,0.082,north-northwest,3.8,No
2020/06/20,02:20,0.168,0.156,0.248,0.236,0.239,0.132,0.082,north-northwest,3.8,No
2020/06/20,02:30,0.168,0.155,0.250,0.239,0.242,0.131,0.081,north-northwest,3.7,No
2020/06/20,02:40,0.168,0.155,0.248,0.238,0.240,0.133,0.081,north-northwest,3.9,No
2020/06/20,02:50,0.168,0.155,0.249,0.238,0.244,0.131,0.081,north-northwest,3.6,No
2020/06/20,03:00,0.169,0.155,0.249,0.239,0.241,0.133,0.081,north-northwest,3.4,No
2020/06/20,03:10,0.168,0.154,0.250,0.240,0.244,0.132,0.082,north-northwest,4.0,No
2020/06/20,03:20,0.169,0.155,0.250,0.238,0.241,0.133,0.081,northwest,4.2,No
2020/06/20,03:30,0.168,0.156,0.250,0.239,0.243,0.133,0.082,north,1.8,No
2020/06/20,03:40,0.170,0.155,0.249,0.238,0.242,0.133,0.082,north-northwest,1.8,No
2020/06/20,03:50,0.167,0.155,0.250,0.238,0.242,0.133,0.081,northwest,1.7,No
2020/06/20,04:00,0.170,0.156,0.249,0.238,0.242,0.133,0.082,northwest,2.5,No
2020/06/20,04:10,0.168,0.155,0.251,0.240,0.242,0.132,0.082,northwest,3.2,No
2020/06/20,04:20,0.170,0.156,0.250,0.238,0.244,0.133,0.082,north-northwest,3.0,No
2020/06/20,04:30,0.169,0.156,0.250,0.240,0.242,0.132,0.081,north-northwest,2.9,No
2020/06/20,04:40,0.169,0.155,0.251,0.239,0.243,0.133,0.082,northwest,2.3,No
2020/06/20,04:50,0.169,0.156,0.250,0.241,0.242,0.133,0.082,northwest,2.6,No
2020/06/20,05:00,0.169,0.155,0.251,0.239,0.243,0.132,0.082,north-northwest,3.2,No
2020/06/20,05:10,0.169,0.155,0.249,0.240,0.242,0.132,0.082,north-northwest,2.8,No
2020/06/20,05:20,0.169,0.155,0.250,0.239,0.242,0.133,0.082,north-northwest,2.8,No
2020/06/20,05:30,0.169,0.157,0.251,0.239,0.241,0.132,0.082,northwest,2.6,No
2020/06/20,05:40,0.169,0.155,0.249,0.237,0.242,0.132,0.082,northwest,1.7,No
2020/06/20,05:50,0.170,0.155,0.251,0.240,0.241,0.133,0.081,north-northwest,1.2,No
2020/06/20,06:00,0.169,0.156,0.250,0.239,0.240,0.133,0.082,northwest,1.2,No
2020/06/20,06:10,0.169,0.155,0.251,0.240,0.243,0.134,0.082,west,0.8,No
2020/06/20,06:20,0.169,0.155,0.249,0.238,0.242,0.132,0.081,west-northwest,0.9,No
2020/06/20,06:30,0.169,0.156,0.249,0.238,0.240,0.134,0.082,west,1.1,No
2020/06/20,06:40,0.169,0.154,0.251,0.241,0.244,0.134,0.082,-,CALM,No
2020/06/20,06:50,0.169,0.154,0.249,0.238,0.242,0.134,0.081,southwest,0.6,No
2020/06/20,07:00,0.170,0.155,0.250,0.238,0.241,0.134,0.082,west,0.9,No
2020/06/20,07:10,0.168,0.156,0.250,0.241,0.245,0.133,0.082,west,0.6,No
2020/06/20,07:20,0.169,0.156,0.249,0.237,0.242,0.134,0.081,west-northwest,0.7,No
2020/06/20,07:30,0.169,0.155,0.247,0.237,0.242,0.133,0.082,-,CALM,No
2020/06/20,07:40,0.168,0.155,0.246,0.240,0.244,0.135,0.082,-,CALM,No
2020/06/20,07:50,0.170,0.156,0.246,0.242,0.243,0.133,0.082,northeast,0.6,No
2020/06/20,08:00,0.169,0.155,0.251,0.239,0.242,0.133,0.082,-,CALM,No
2020/06/20,08:10,0.169,0.155,0.250,0.238,0.240,0.133,0.082,north,0.7,No
2020/06/20,08:20,0.170,0.154,0.250,0.238,0.242,0.133,0.082,-,CALM,No
2020/06/20,08:30,0.170,0.155,0.249,0.237,0.244,0.133,0.082,southeast,2.6,No
2020/06/20,08:40,0.168,0.155,0.250,0.238,0.243,0.133,0.082,southeast,3.0,No
2020/06/20,08:50,0.169,0.153,0.250,0.238,0.242,0.134,0.081,southeast,2.9,No
2020/06/20,09:00,0.170,0.156,0.250,0.242,0.242,0.134,0.082,east-southeast,2.9,No
2020/06/20,09:10,0.171,0.156,0.248,0.242,0.241,0.134,0.082,southeast,3.3,No
2020/06/20,09:20,0.168,0.157,0.249,0.242,0.244,0.134,0.081,southeast,3.1,No
2020/06/20,09:30,0.167,0.155,0.249,0.240,0.245,0.134,0.081,southeast,3.7,No
2020/06/20,09:40,0.168,0.155,0.250,0.239,0.243,0.133,0.082,southeast,3.0,No
2020/06/20,09:50,0.171,0.156,0.252,0.238,0.242,0.134,0.083,south-southeast,4.1,No
2020/06/20,10:00,0.169,0.156,0.254,0.239,0.241,0.134,0.083,south-southeast,3.3,No
2020/06/20,10:10,0.169,0.157,0.252,0.244,0.244,0.133,0.082,south-southeast,3.3,No
2020/06/20,10:20,0.170,0.157,0.250,0.243,0.246,0.134,0.081,south-southeast,3.3,No
2020/06/20,10:30,0.171,0.155,0.251,0.241,0.244,0.133,0.081,south-southeast,4.1,No
2020/06/20,10:40,0.170,0.155,0.250,0.240,0.242,0.134,0.082,south-southeast,3.5,No
2020/06/20,10:50,0.169,0.155,0.251,0.239,0.242,0.134,0.082,south-southeast,3.0,No
2020/06/20,11:00,0.169,0.154,0.250,0.239,0.241,0.133,0.082,south-southeast,2.9,No
2020/06/20,11:10,0.168,0.158,0.254,0.243,0.243,0.133,0.081,south-southeast,3.1,No
2020/06/20,11:20,0.170,0.157,0.254,0.243,0.246,0.135,0.083,south-southeast,2.8,No
2020/06/20,11:30,0.170,0.156,0.252,0.240,0.243,0.134,0.083,southeast,2.1,No
2020/06/20,11:40,0.168,0.157,0.252,0.241,0.242,0.135,0.082,south-southeast,1.0,No
2020/06/20,11:50,0.171,0.156,0.255,0.243,0.244,0.135,0.083,southwest,1.0,No
2020/06/20,12:00,0.170,0.156,0.253,0.241,0.244,0.135,0.082,north-northwest,1.6,No
2020/06/20,12:10,0.169,0.156,0.251,0.240,0.244,0.134,0.081,north,1.3,No
2020/06/20,12:20,0.169,0.155,0.250,0.239,0.242,0.134,0.082,northeast,1.6,No
2020/06/20,12:30,0.168,0.156,0.251,0.241,0.240,0.133,0.083,northeast,1.2,No
2020/06/20,12:40,0.170,0.156,0.254,0.243,0.240,0.134,0.082,east-northeast,1.6,No
2020/06/20,12:50,0.171,0.158,0.255,0.243,0.242,0.134,0.082,east-northeast,2.8,No
2020/06/20,13:00,0.170,0.157,0.253,0.241,0.242,0.134,0.082,east,2.9,No
2020/06/20,13:10,0.169,0.157,0.253,0.240,0.244,0.133,0.082,east-southeast,2.2,No
2020/06/20,13:20,0.169,0.155,0.251,0.240,0.245,0.134,0.082,east,2.9,No
2020/06/20,13:30,0.169,0.155,0.252,0.244,0.244,0.135,0.082,east-southeast,2.1,No
2020/06/20,13:40,0.172,0.157,0.255,0.244,0.244,0.135,0.082,east-southeast,1.5,No
2020/06/20,13:50,0.171,0.158,0.256,0.242,0.243,0.135,0.082,east-northeast,1.6,No
2020/06/20,14:00,0.170,0.157,0.254,0.242,0.243,0.134,0.081,west-southwest,1.9,No
2020/06/20,14:10,0.170,0.157,0.253,0.240,0.242,0.134,0.083,west,5.0,No
2020/06/20,14:20,0.170,0.157,0.253,0.241,0.244,0.134,0.083,west-southwest,2.1,No
2020/06/20,14:30,0.169,0.156,0.251,0.241,0.244,0.133,0.082,north-northwest,3.3,No
2020/06/20,14:40,0.169,0.157,0.252,0.242,0.244,0.134,0.082,west-northwest,6.4,No
2020/06/20,14:50,0.170,0.156,0.252,0.242,0.244,0.135,0.081,northeast,2.1,No
2020/06/20,15:00,0.169,0.155,0.253,0.242,0.243,0.135,0.081,east,1.9,No
2020/06/20,15:10,0.169,0.156,0.253,0.242,0.244,0.134,0.082,-,CALM,No
2020/06/20,15:20,0.170,0.155,0.252,0.243,0.245,0.135,0.083,southeast,1.1,No
2020/06/20,15:30,0.170,0.154,0.253,0.242,0.244,0.135,0.083,southeast,2.5,No
2020/06/20,15:40,0.170,0.156,0.254,0.241,0.244,0.135,0.082,south,1.4,No
2020/06/20,15:50,0.170,0.155,0.255,0.242,0.245,0.135,0.082,north-northwest,0.7,No
2020/06/20,16:00,0.170,0.156,0.253,0.241,0.244,0.134,0.081,west,3.8,No
2020/06/20,16:10,0.170,0.157,0.253,0.244,0.245,0.135,0.083,west,6.7,No
2020/06/20,16:20,0.170,0.158,0.257,0.245,0.244,0.134,0.082,west-northwest,5.9,No
2020/06/20,16:30,0.169,0.157,0.257,0.243,0.243,0.135,0.081,west-northwest,7.1,No
2020/06/20,16:40,0.170,0.157,0.254,0.243,0.244,0.135,0.082,west,5.5,No
2020/06/20,16:50,0.172,0.158,0.255,0.246,0.243,0.136,0.083,west,5.2,No
2020/06/20,17:00,0.172,0.158,0.259,0.245,0.244,0.135,0.082,west,3.3,No
2020/06/20,17:10,0.172,0.157,0.254,0.244,0.244,0.136,0.082,west,3.0,No
2020/06/20,17:20,0.172,0.157,0.254,0.244,0.243,0.135,0.083,west-northwest,2.9,No
2020/06/20,17:30,0.169,0.159,0.256,0.245,0.243,0.135,0.082,west,3.7,No
2020/06/20,17:40,0.173,0.158,0.257,0.243,0.244,0.135,0.082,west-northwest,3.1,No
2020/06/20,17:50,0.173,0.157,0.256,0.243,0.242,0.135,0.082,west-northwest,3.9,No
2020/06/20,18:00,0.171,0.158,0.254,0.246,0.242,0.134,0.082,north-northwest,2.9,No
2020/06/20,18:10,0.171,0.158,0.258,0.243,0.243,0.135,0.082,east-northeast,3.3,No
2020/06/20,18:20,0.171,0.157,0.257,0.243,0.244,0.135,0.083,north-northeast,1.5,No
2020/06/20,18:30,0.174,0.158,0.254,0.246,0.248,0.135,0.082,northeast,1.9,No
2020/06/20,18:40,0.173,0.157,0.257,0.244,0.246,0.135,0.083,north,2.8,No
2020/06/20,18:50,0.171,0.157,0.256,0.245,0.247,0.135,0.082,north-northwest,2.9,No
2020/06/20,19:00,0.173,0.157,0.257,0.244,0.248,0.136,0.083,north-northeast,1.9,No
2020/06/20,19:10,0.171,0.157,0.257,0.244,0.244,0.136,0.083,northeast,2.9,No
2020/06/20,19:20,0.172,0.158,0.256,0.244,0.248,0.136,0.082,northeast,2.3,No
2020/06/20,19:30,0.172,0.158,0.257,0.244,0.245,0.135,0.082,east,1.3,No
2020/06/20,19:40,0.171,0.158,0.255,0.245,0.246,0.136,0.082,southeast,1.1,No
2020/06/20,19:50,0.172,0.157,0.257,0.244,0.246,0.135,0.083,-,CALM,No
2020/06/20,20:00,0.171,0.159,0.255,0.245,0.246,0.135,0.083,-,CALM,No
2020/06/20,20:10,0.172,0.158,0.257,0.245,0.247,0.135,0.082,east-northeast,0.6,No
2020/06/20,20:20,0.171,0.158,0.256,0.245,0.243,0.135,0.083,-,CALM,No
2020/06/20,20:30,0.172,0.158,0.259,0.244,0.246,0.135,0.083,-,CALM,No
2020/06/20,20:40,0.171,0.158,0.255,0.245,0.244,0.136,0.083,-,CALM,No
2020/06/20,20:50,0.171,0.157,0.258,0.244,0.247,0.136,0.083,-,CALM,No
2020/06/20,21:00,0.172,0.157,0.256,0.245,0.245,0.135,0.083,-,CALM,No
2020/06/20,21:10,0.172,0.156,0.256,0.246,0.246,0.136,0.083,-,CALM,No
2020/06/20,21:20,0.172,0.158,0.255,0.243,0.245,0.135,0.081,-,CALM,No
2020/06/20,21:30,0.172,0.158,0.257,0.245,0.246,0.135,0.083,-,CALM,No
2020/06/20,21:40,0.171,0.157,0.256,0.245,0.244,0.135,0.082,east,1.1,No
2020/06/20,21:50,0.172,0.158,0.257,0.245,0.247,0.135,0.083,east-southeast,1.0,No
2020/06/20,22:00,0.172,0.157,0.256,0.244,0.244,0.134,0.082,east-southeast,1.3,No
2020/06/20,22:10,0.172,0.158,0.257,0.245,0.245,0.136,0.082,east-southeast,0.8,No
2020/06/20,22:20,0.172,0.158,0.258,0.244,0.244,0.135,0.082,southeast,0.9,No
2020/06/20,22:30,0.172,0.157,0.256,0.245,0.246,0.135,0.082,east-southeast,0.7,No
2020/06/20,22:40,0.172,0.158,0.258,0.245,0.244,0.134,0.083,-,CALM,No
2020/06/20,22:50,0.173,0.157,0.256,0.246,0.247,0.134,0.083,-,CALM,No
2020/06/20,23:00,0.171,0.157,0.258,0.245,0.244,0.135,0.082,-,CALM,No
2020/06/20,23:10,0.173,0.158,0.256,0.243,0.246,0.135,0.083,east,2.6,No
2020/06/20,23:20,0.172,0.158,0.257,0.246,0.244,0.135,0.083,east,1.8,No
2020/06/20,23:30,0.173,0.159,0.257,0.244,0.247,0.136,0.084,east-northeast,2.6,No
2020/06/20,23:40,0.172,0.158,0.258,0.245,0.246,0.137,0.083,east-northeast,3.1,No
2020/06/20,23:50,0.172,0.158,0.258,0.245,0.248,0.136,0.083,northeast,3.8,No
